Location: ?????????
(55.0342°N, 38.6012°E)
Time: 11:54:16
(UTC+00:00)

Daily predictions for brighter satellites

Satellite Brightness Start Highest point End
(mag) Time Altitude Azimuth Time Altitude Azimuth Time Altitude Azimuth
Cosmos 1464 Rocket 4.3 13:30:38 10° SSW 13:36:46 72° WNW 13:42:56 10° N
Cosmos 2369 Rocket 2.9 13:33:50 10° SW 13:39:22 52° NW 13:44:56 10° NNE
IRS-1D 4.2 13:35:18 10° S 13:40:10 58° WSW 13:45:03 10° NNW
Cosmos 773 Rocket 4.0 13:36:10 10° NNW 13:41:23 77° ENE 13:46:39 10° SSE
Cosmos 2279 Rocket 4.4 13:37:55 10° SSE 13:43:42 43° E 13:49:33 10° NNE
CZ-2D R/B 4.3 13:42:46 10° ESE 13:44:52 17° ENE 13:47:00 10° NNE
Cosmos 1092 Rocket 4.1 13:39:19 10° NNW 13:45:31 85° W 13:51:40 10° S
Iridium 45 4.2 13:43:52 10° S 13:47:02 85° E 13:50:20 10° N
YAOGAN 1 4.3 13:47:29 10° ENE 13:49:20 13° NE 13:51:11 10° NNE
NOSS 2-2 (D) 3.9 13:47:24 10° S 13:50:15 28° SE 13:52:54 10° ENE
Cosmos 1867 3.6 13:45:17 10° NW 13:50:47 73° NE 13:56:14 10° SE
Cosmos 2278 Rocket 3.9 13:47:05 10° WNW 13:51:07 19° NNW 13:55:09 10° NNE
Cosmos 1697 Rocket 4.2 13:48:15 10° SE 13:51:54 18° E 13:55:34 10° ENE
Intercosmos 24 3.7 13:48:46 10° N 13:52:47 64° ENE 13:56:18 10° SSE
Cosmos 2151 3.4 13:48:55 10° N 13:52:50 38° ENE 13:56:45 10° SE
Cosmos 1607 4.1 13:47:04 10° NW 13:53:18 84° SW 13:59:36 10° SE
Cosmos 1743 2.6 13:52:48 10° N 13:55:56 42° ENE 13:59:02 10° SSE
Cosmos 2084 3.6 13:57:18 10° WSW 14:01:28 65° NNW 14:05:23 11° NE
MOS 1 Rocket 4.2 13:57:02 10° ESE 14:01:30 33° ENE 14:06:09 10° N
NOSS 3-2 (A) 3.5 13:56:47 10° SSW 14:01:49 56° SE 14:07:44 11° NE
Cosmos 1900 4.3 13:57:20 10° NW 14:02:27 83° NE 14:07:27 10° SE
NOSS 3-2 (C) 4.2 13:59:24 10° S 14:03:46 28° ESE 14:08:26 11° ENE
IGS 5A 3.3 14:00:00 10° SSE 14:03:55 67° ENE 14:07:54 10° N
SL-08 ROCKET BODY 4.4 13:59:53 10° N 14:05:50 75° ENE 14:11:52 10° SSE
ARIANE 5 R/B 2.8 14:01:35 10° SE 14:06:25 46° ENE 14:11:20 10° N
Cosmos 2034 Rocket 4.5 14:01:13 10° SSW 14:07:31 66° WNW 14:13:53 10° N
Cosmos 1356 Rocket 3.4 14:04:09 10° SSW 14:08:14 83° WNW 14:12:22 10° NNE
Cosmos 1825 Rocket 4.2 14:06:05 10° N 14:10:02 33° ENE 14:13:58 10° SE
Cosmos 1656 3.9 14:04:45 10° S 14:10:14 55° ESE 14:15:48 10° NE
NOSS 2-2 (E) 3.6 14:07:17 10° SSW 14:10:14 34° SE 14:12:22 15° ENE
Cosmos 2084 Rocket 3.8 14:07:04 10° NW 14:11:16 66° SW 14:15:26 10° SE
SAR-Lupe-4 4.1 14:08:08 10° SE 14:11:23 35° ENE 14:14:40 10° N
Cosmos 2208 Rocket 4.4 14:06:59 10° NNW 14:12:07 67° WSW 14:17:14 10° SSE
Cosmos 1758 Rocket 3.5 14:09:06 10° NNW 14:13:26 89° NE 14:17:44 10° S
CZ-4C R/B 3.1 14:07:35 10° NW 14:14:10 80° SW 14:22:32 10° SE
Resurs 01 Rocket 3.6 14:14:57 11° NE 14:14:57 11° NE 14:15:26 10° NNE
Meteor 1-20 Rocket 4.1 14:09:34 10° N 14:15:01 63° ENE 14:20:26 10° SSE
Cosmos 2266 Rocket 4.0 14:09:21 10° N 14:15:29 59° ENE 14:21:28 10° SSE
Cosmos 1782 2.6 14:12:50 10° S 14:16:22 55° E 14:19:53 10° NNE
UNK 4.3 14:13:09 10° NNE 14:17:25 36° E 14:21:37 10° SSE
Cosmos 2098 Rocket 3.3 14:14:40 10° S 14:18:54 55° E 14:23:54 10° NNE
Cosmos 2082 4.4 14:15:23 10° NNW 14:20:35 34° NE 14:25:46 10° ESE
SAR-Lupe-1 4.5 14:18:44 10° SE 14:22:08 40° ENE 14:25:33 10° N
SPOT 1/Viking Rocket 4.1 14:18:22 10° ESE 14:23:02 34° ENE 14:27:42 10° N
CBERS-1 4.3 14:20:38 10° S 14:25:45 73° WSW 14:30:53 10° NNW
CZ-2D R/B 4.4 14:22:52 10° ESE 14:26:17 25° ENE 14:29:39 10° N
Cosmos 2297 Rocket 2.8 14:20:48 10° NW 14:26:25 62° WSW 14:31:59 10° SSE
Cosmos 783 Rocket 4.5 14:21:24 10° NNW 14:26:45 85° ENE 14:32:04 10° SSE
Cosmos 1076 Rocket 4.1 14:24:57 10° N 14:28:53 33° ENE 14:32:48 10° SE
SMAP 3.0 14:24:15 10° SSE 14:28:54 77° ENE 14:33:35 10° NNW
IRS-P3 4.3 14:24:02 10° SE 14:29:10 51° ENE 14:34:19 10° N
Cosmos 405 Rocket 4.1 14:26:13 10° NNW 14:29:13 34° W 14:32:10 10° SSW
NOSS 2-2 (C) 2.7 14:28:55 10° WSW 14:31:58 69° NW 14:33:48 21° NE
Landsat 7 3.7 14:29:08 10° SSE 14:33:45 68° ENE 14:38:23 10° N
Cosmos 1626 Rocket 4.5 14:31:30 10° NNW 14:35:43 50° W 14:39:52 10° S
Cosmos 1538 Rocket 4.2 14:31:33 10° NNW 14:36:41 49° NE 14:41:50 10° SE
SJ-6F 4.5 14:35:53 10° SE 14:39:44 50° ENE 14:43:40 10° N
Meteor 1-28 Rocket 2.8 14:36:37 10° NNE 14:39:59 85° ESE 14:43:19 10° SSW
[s.n.66845] 2.5 14:39:34 10° NNW 14:41:46 28° NE 14:41:46 28° NE
[s.n.66847] 2.5 14:40:01 10° NNW 14:42:12 28° NE 14:42:12 28° NE
[s.n.66846] 2.5 14:40:26 10° NNW 14:42:37 28° NNE 14:42:37 28° NNE
[s.n.66843] 2.5 14:40:58 10° NNW 14:43:09 29° NNE 14:43:09 29° NNE
CENTAUR R/B 3.0 14:37:43 10° WSW 14:43:49 64° NNW 14:49:50 17° NE
[s.n.66844] 2.5 14:41:24 10° NNW 14:43:35 29° NNE 14:43:35 29° NNE
[s.n.66842] 2.5 14:41:57 10° NNW 14:44:07 29° NNE 14:44:07 29° NNE
[s.n.66841] 2.5 14:42:23 10° NNW 14:44:33 29° NNE 14:44:33 29° NNE
[s.n.66840] 2.5 14:42:53 10° NNW 14:45:03 29° NNE 14:45:03 29° NNE
[s.n.66838] 2.5 14:43:22 10° NNW 14:45:31 30° NNE 14:45:31 30° NNE
Cosmos 2219 3.4 14:40:45 10° NNW 14:46:21 51° NE 14:51:56 10° ESE
[s.n.66839] 2.5 14:43:52 10° NNW 14:46:01 30° NNE 14:46:01 30° NNE
SL-16 R/B 2.6 14:40:21 10° NNE 14:46:37 84° WNW 14:52:50 10° SSW
[s.n.66837] 2.5 14:44:18 10° NNW 14:46:28 30° NNE 14:46:28 30° NNE
[s.n.66836] 2.5 14:44:48 10° NNW 14:46:57 30° NNE 14:46:57 30° NNE
[s.n.66835] 2.5 14:45:19 10° NNW 14:47:27 31° NNE 14:47:27 31° NNE
Thor Agena Rocket 4.0 14:42:50 10° S 14:48:00 65° WSW 14:53:08 10° NNW
Cosmos 1606 Rocket 3.9 14:44:01 10° SSE 14:48:13 44° E 14:51:39 15° NNE
[s.n.66834] 2.5 14:45:48 10° NNW 14:47:56 31° NNE 14:47:56 31° NNE
[s.n.66833] 2.4 14:46:14 10° NNW 14:48:22 31° NNE 14:48:22 31° NNE
Cosmos 1315 Rocket 4.4 14:45:48 10° SW 14:49:15 32° WNW 14:52:44 10° N
[s.n.66832] 2.4 14:46:46 10° NNW 14:48:54 31° NNE 14:48:54 31° NNE
Cosmos 1503 Rocket 4.1 14:44:22 10° S 14:49:31 59° ESE 14:53:23 17° NE
[s.n.66831] 2.4 14:47:12 10° NNW 14:49:19 31° NNE 14:49:19 31° NNE
[s.n.66830] 2.4 14:47:38 10° NNW 14:49:44 32° NNE 14:49:44 32° NNE
[s.n.66828] 2.4 14:48:02 10° NNW 14:50:09 32° NNE 14:50:09 32° NNE
[s.n.66829] 2.4 14:48:34 10° NNW 14:50:41 32° NNE 14:50:41 32° NNE
GEOS 3 Rocket 4.0 14:47:49 21° ENE 14:51:16 50° SE 14:56:29 10° SSW
USA 281 4.5 14:49:00 18° NE 14:51:17 22° NNE 14:56:01 10° NNW
[s.n.66827] 2.4 14:49:06 10° NNW 14:51:12 32° NNE 14:51:12 32° NNE
[s.n.66826] 2.4 14:49:36 10° NNW 14:51:42 32° NNE 14:51:42 32° NNE
ATLAS CENTAUR R/B 4.4 14:51:24 10° W 14:52:35 12° WSW 14:53:46 10° SW
[s.n.66825] 2.4 14:50:02 10° NNW 14:52:08 33° NNE 14:52:08 33° NNE
[s.n.66824] 2.4 14:50:33 10° NNW 14:52:38 33° NNE 14:52:38 33° NNE
[s.n.66823] 2.4 14:51:04 10° NNW 14:53:08 33° NNE 14:53:08 33° NNE
Cosmos 1844 Rocket 3.6 14:48:50 10° NNW 14:53:44 29° NE 14:55:40 24° ENE
[s.n.66822] 2.4 14:51:33 10° NNW 14:53:38 33° NNE 14:53:38 33° NNE
[s.n.66821] 2.4 14:52:01 10° NNW 14:54:05 33° NNE 14:54:05 33° NNE
Cosmos 1980 Rocket 3.2 14:50:34 10° SSE 14:55:02 25° ESE 14:56:11 23° E
Meteor 1-25 Rocket 4.3 14:49:33 10° NNW 14:55:26 87° WSW 15:01:13 10° S
Meteor 1-5 Rocket 4.0 14:50:30 10° N 14:55:50 68° ENE 15:01:15 10° SSE
Cosmos 1544 Rocket 4.1 14:53:07 10° SSW 14:57:29 60° WNW 15:01:54 10° N
AQUARIUS 4.0 14:53:27 10° SSE 14:57:52 84° ENE 15:02:18 10° NNW
Cosmos 1354 Rocket 4.2 14:54:01 10° S 14:59:06 52° ESE 15:02:16 22° NE
Resurs 1-3 3.9 14:56:31 10° SE 15:00:31 39° ENE 15:04:33 10° N
Cosmos 2263 Rocket 2.1 14:55:55 10° NNW 15:01:37 79° NE 15:07:20 10° SE
Lacrosse 5 rocket 1.1 14:59:12 10° W 15:02:55 66° N 15:04:06 39° ENE
USA 238 DEB 4.4 14:59:18 10° S 15:04:26 29° ESE 15:06:19 25° E
USA 238 4.4 14:59:26 10° S 15:04:35 28° ESE 15:06:26 25° E
Cosmos 1777 Rocket 3.9 15:00:33 10° SSW 15:05:49 86° ESE 15:09:43 19° NNE
Spot 4 Rocket 4.1 15:00:59 10° SE 15:05:55 52° ENE 15:10:54 10° N
Lacrosse 4 Rocket 3.0 15:02:45 10° W 15:06:09 25° NNW 15:08:19 16° NNE
USA 215 3.3 15:06:28 24° E 15:10:38 76° N 15:17:12 10° W
Cosmos 1726 Rocket 3.7 15:07:38 10° S 15:12:11 57° E 15:14:56 23° NNE
Okean 1-7 Rocket 4.2 15:08:06 10° NNW 15:12:26 57° W 15:16:42 10° S
Cosmos 44 Rocket 3.9 15:08:43 10° NW 15:13:31 40° NNE 15:14:56 33° ENE
CZ-2D R/B 3.8 15:13:29 10° S 15:16:31 46° W 15:19:35 10° NNW
NOSS 2-3 (E) 4.2 15:13:50 10° S 15:16:49 30° SE 15:16:49 30° SE
NOSS 2-3 (D) 4.3 15:14:35 10° S 15:17:27 28° SE 15:17:27 28° SE
Cosmos 2227 Rocket 2.9 15:12:17 10° NW 15:17:49 56° WSW 15:23:19 10° SSE
Cosmos 1943 Rocket 4.0 15:14:56 10° NNW 15:18:09 15° N 15:19:30 14° NNE
Cosmos 923 Rocket 4.1 15:13:32 10° NNW 15:18:37 49° NE 15:20:52 30° ESE
SKYMED 2 3.8 15:21:36 44° ENE 15:22:05 46° E 15:26:16 10° S
Cosmos 1461 2.6 15:19:37 10° SW 15:23:32 84° SE 15:24:22 54° NE
Cosmos 1933 3.2 15:20:23 10° SSW 15:24:13 79° WNW 15:26:21 25° N
YAOGAN 1 2.4 15:20:12 10° SSE 15:24:24 64° ENE 15:28:39 10° N
Cosmos 2369 Rocket 4.0 15:20:26 10° WNW 15:24:42 21° NNW 15:28:01 13° NNE
Cosmos-2242 4.2 15:21:39 10° SSE 15:23:49 25° SE 15:23:49 25° SE
Cosmos 1486 Rocket 4.5 15:20:25 10° SW 15:25:34 60° WNW 15:29:25 18° NNE
BREEZE-M DEB (TANK) 4.1 15:23:24 10° WSW 15:26:39 41° S 15:33:52 14° ESE
Cosmos 1655 Rocket 4.0 15:20:22 10° NNW 15:26:40 86° W 15:32:53 10° S
Cosmos 2360 4.5 15:22:22 10° SW 15:28:05 68° NW 15:31:46 23° NNE
Meteor 2-10 4.0 15:26:35 10° NNW 15:31:56 82° ENE 15:37:28 10° SSE
NOAA 15 4.5 15:28:11 10° SSE 15:33:29 84° ENE 15:38:48 10° NNW
Cosmos 1697 Rocket 2.6 15:29:24 10° SSW 15:35:01 81° ESE 15:37:32 35° NE
Cosmos 990 Rocket 3.8 15:31:56 10° SSW 15:37:04 82° ESE 15:39:11 37° NNE
Cosmos 2278 Rocket 4.0 15:33:54 10° NNW 15:37:27 16° N 15:38:10 16° NNE
Cosmos 1953 Rocket 3.8 15:34:06 10° NNW 15:38:31 69° W 15:42:57 10° S
Aureole 1 Rocket 3.7 15:34:30 10° S 15:38:59 48° ESE 15:39:12 47° E
NOSS 2-2 (D) 3.8 15:36:24 10° W 15:39:04 37° NW 15:39:04 37° NW
MOS 1 Rocket 4.3 15:34:28 10° S 15:39:20 52° W 15:44:28 10° NNW
Cosmos 494 Rocket 4.4 15:39:25 10° NNW 15:44:00 43° NE 15:44:00 43° NE
ARIANE 5 R/B 4.1 15:40:56 10° SSW 15:45:35 36° W 15:50:20 10° NNW
Radarsat Rocket 4.5 15:40:56 10° SSE 15:49:00 89° WSW 15:56:09 10° NNW
Resurs 01 Rocket 3.3 15:52:21 21° N 15:52:21 21° N 15:53:55 10° N
Cosmos 1680 Rocket 3.4 15:45:58 10° NNW 15:51:10 63° ENE 15:51:29 61° ENE
USA 81 4.1 15:46:36 10° N 15:51:53 79° W 15:57:09 10° S
NOAA 6 3.8 15:47:33 10° SSE 15:52:40 82° ENE 15:57:47 10° NNW
NOSS 3-2 (A) 3.8 15:47:17 10° WSW 15:52:40 54° NNW 15:55:04 36° NNE
NOSS 3-2 (C) 3.3 15:48:33 10° SW 15:53:52 80° NW 15:55:51 45° NE
IRAS Rocket 4.2 15:51:45 10° SSE 15:57:14 80° WSW 16:02:46 10° NNW
Cosmos 1844 3.8 15:52:44 10° NNW 15:57:58 51° NE 15:57:58 51° NE
Meteor 2-2 Rocket 4.1 15:52:46 10° S 15:58:20 64° E 15:58:58 60° ENE
Gbstr 26 Del rocket 4.0 15:54:53 10° SW 15:57:35 31° SSW 15:57:35 31° SSW
CZ-2D R/B 4.2 15:56:53 10° S 16:00:59 51° W 16:05:02 10° NNW
SPOT 1/Viking Rocket 4.4 15:57:10 10° S 16:02:14 51° W 16:07:20 10° NNW
Cosmos 2082 3.9 15:59:26 10° NW 16:05:08 72° WSW 16:08:44 23° SSE
SL-19 R/B 4.4 15:59:47 10° S 16:05:12 71° WSW 16:10:59 10° NNW
PSLV R/B 3.9 16:06:53 35° SSW 16:08:19 58° WSW 16:12:21 10° NNW
COSMO-SKYMED 1 4.1 16:12:53 26° SSW 16:12:53 26° SSW 16:14:42 10° SSW
Cosmos 2227 4.1 16:08:16 10° NNW 16:13:46 72° NE 16:13:46 72° NE
Cosmos 2058 Rocket 3.5 16:09:58 10° SSW 16:13:33 56° SSW 16:13:33 56° SSW
Meteor 2-11 Rocket 4.3 16:08:38 10° NNW 16:14:51 87° ENE 16:21:01 10° S
Meteor 1-26 Rocket 4.0 16:17:47 10° SSW 16:23:10 86° W 16:23:10 86° W
Cosmos 1553 Rocket 3.9 16:22:03 10° S 16:28:15 90° E 16:30:07 49° N
GEOS 3 Rocket 4.0 16:28:51 56° N 16:29:20 58° NNW 16:34:36 10° WSW
SL-16 R/B 4.4 16:24:35 10° N 16:29:27 25° NW 16:34:17 10° W
Cosmos 2219 4.3 16:25:04 10° NW 16:30:27 42° WSW 16:35:49 10° S
USA 281 3.7 16:35:52 44° NNE 16:35:52 44° NNE 16:40:51 10° NNW
CENTAUR R/B 3.5 16:29:09 10° WNW 16:35:40 45° N 16:36:56 42° NNE
Cosmos 1844 Rocket 2.9 16:32:39 10° NNW 16:37:20 62° NNW 16:37:20 62° NNW
Cosmos 1980 Rocket 2.3 16:32:48 10° SW 16:37:58 72° WSW 16:37:58 72° WSW
Lacrosse 5 rocket 3.6 16:36:28 10° WNW 16:37:41 20° WNW 16:37:41 20° WNW
Cosmos 1745 Rocket 3.9 16:34:09 10° NNW 16:40:05 82° NW 16:40:05 82° NW
Cosmos 2263 Rocket 4.3 16:40:30 10° NW 16:44:59 25° WSW 16:49:31 10° SSW
Lacrosse 4 Rocket 4.1 16:43:16 10° NW 16:43:48 11° NNW 16:43:48 11° NNW
USA 215 3.2 16:53:49 82° SW 16:53:49 82° SW 17:00:18 10° WNW
USA 238 DEB 3.6 16:48:19 10° SW 16:53:47 71° SW 16:53:47 71° SW
USA 238 3.7 16:48:25 10° SW 16:53:53 71° SW 16:53:53 71° SW
Cosmos 1943 Rocket 4.3 16:59:22 10° NNW 17:00:59 17° N 17:00:59 17° N
Cosmos 2369 Rocket 4.4 17:07:25 10° NW 17:09:47 15° N 17:09:47 15° N
Cosmos 1697 Rocket 4.2 17:14:36 10° W 17:19:16 31° NW 17:19:16 31° NW
Cosmos 2278 Rocket 4.4 17:18:31 10° NNW 17:19:58 17° NNW 17:19:58 17° NNW
CENTAUR R/B 4.3 18:20:20 10° NW 18:24:02 33° NW 18:24:02 33° NW
